Regional Weather Roundup
Issued by NWS

Home | Current Version | Previous Version | Text Only | Print | Product List | Glossary On
Versions: 1 2 3 4 5 6 7 8 9 10 11 12 13 14 15 16 17 18 19 20 21 22 23 24 25 26 27 28 29 30 31 32 33 34 35 36 37 38 39 40 41 42 43 44 45 46 47 48 49 50
000
ASUS43 KTOP 031359
RWRKS

WEATHER ROUNDUP FOR KANSAS
NATIONAL WEATHER SERVICE GOODLAND KS
900 AM CDT WED JUN 03 2015

NOTE:  "FAIR" INDICATES FEW OR NO CLOUDS BELOW 12,000 FEET WITH NO
SIGNIFICANT WEATHER AND/OR OBSTRUCTIONS TO VISIBILITY.

KSZ001>006-013>018-027>032-041>047-031500-
NORTHWEST KANSAS

CITY           SKY/WX    TMP DP  RH WIND       PRES   REMARKS
GOODLAND       CLOUDY    62  60  93 E24G35    29.91R
HAYS           CLOUDY    70  61  73 E18       29.89S
HILL CITY      CLOUDY    66  58  75 E23G30    29.89F
RUSSELL        CLOUDY    69  66  90 NE23G29   29.89R
$$

KSZ061>065-074>080-084>089-031500-
SOUTHWEST KANSAS

CITY           SKY/WX    TMP DP  RH WIND       PRES   REMARKS
DODGE CITY     SUNNY     73  62  68 S21G31    29.80F
ELKHART          N/A     74  48  39 W10         N/A
GARDEN CITY    SUNNY     70  62  76 SW8       29.83R
GREAT BEND     PTSUNNY   72  64  78 N14       29.89R
LIBERAL        SUNNY     73  63  68 S16       29.84R
$$

KSZ066>073-081>083-090>101-031500-
SOUTHEAST KANSAS

CITY           SKY/WX    TMP DP  RH WIND       PRES   REMARKS
CHANUTE        CLOUDY    73  66  78 S16G23    29.94R
COFFEYVILLE    PTSUNNY   72  67  84 S14       29.94R
HUTCHINSON     SUNNY     75  64  68 S15G24    29.85S
MEDICINE LODGE   N/A     73  65  75 S8G17     29.85S
NEWTON         SUNNY     73  63  68 S14G24    29.91R
PARSONS        MOSUNNY   74  67  78 S10       29.96R
WICHITA INTL   PTSUNNY   74  65  73 S20       29.87F
WICHITA JABRA  MOSUNNY   74  64  71 S16G24    29.88S
WINFIELD       SUNNY     75  65  70 S18G24    29.91R
$$

KSZ007>012-019>026-033>040-048>060-102>105-031500-
NORTHEAST KANSAS

CITY           SKY/WX    TMP DP  RH WIND       PRES   REMARKS
CONCORDIA      LGT RAIN  61  60  97 E10       29.93F
EMPORIA        CLOUDY    70  65  84 S15       29.91R
LAWRENCE       CLOUDY    69  65  86 N8        29.95R
MANHATTAN      PTSUNNY   71  67  87 CALM      29.91R
OLATHE IND     CLOUDY    68  65  90 S10       29.94R
OLATHE EXE     CLOUDY    69  64  84 S12       29.93R
SALINA         PTSUNNY   74  65  73 N13       29.93R
TOPEKA BILLARD CLOUDY    69  66  90 N6        29.94R
TOPEKA FORBES  CLOUDY    72  65  78 N12       29.94R
$$


USA.gov is the U.S. government's official web portal to all federal, state and local government web resources and services.